Location: Bemmer
(51.5498°N, 5.6249°E)
Time: 13:19:26
(UTC+00:00)

Terra - Pass Details

Date: 03 March 2021
Orbit: 701 x 703 km, 98.2° (Epoch: 11 April)

Event Time Altitude Azimuth Distance (km) Brightness Sun altitude
Exits shadow 21:21:34 20° 349° (N) 1,589 4.0 -35.6°
Drops below altitude 10° 21:23:05 10° 347° (NNW) 2,185 4.9 -35.8°
Sets 21:25:21 0° 347° (NNW) 3,107 5.9 -36.0°
